Regional Weather Roundup
Issued by NWS

Home | Current Version | Previous Version | Graphics & Text | Print | Product List | Glossary On
Versions: 1 2 3 4 5 6 7 8 9 10 11 12 13 14 15 16 17 18 19 20 21 22 23 24 25 26 27 28 29 30 31 32 33 34 35 36 37 38 39 40 41 42 43 44 45 46 47 48 49 50
000
ASUS43 KMKX 231711
RWRWI

WISCONSIN REGIONAL WEATHER ROUNDUP
NATIONAL WEATHER SERVICE MILWAUKEE/SULLIVAN WI
1200 PM CDT MON OCT 23 2017

NOTE: "FAIR" INDICATES FEW OR NO CLOUDS BELOW 12,000 FEET WITH NO
SIGNIFICANT WEATHER AND/OR OBSTRUCTIONS TO VISIBILITY.

WIZ001-002-006>008-014>016-023>028-231800-
NORTHWEST WISCONSIN

CITY           SKY/WX    TMP DP  RH WIND       PRES   REMARKS
SUPERIOR ARPT  PTSUNNY   60  42  52 SW5       29.69S
ASHLAND        CLOUDY    55  40  56 S8        29.71S
HAYWARD        CLOUDY    55  38  52 SW8       29.73S
SIREN          MOSUNNY   57  40  53 W7        29.73F
CUMBERLAND     CLOUDY    54  37  54 W7        29.74S
RICE LAKE      CLOUDY    55  39  55 SW6       29.75F
CHETEK         CLOUDY    54  41  61 W7        29.74F
LADYSMITH      PTSUNNY   55  42  61 SW8       29.76F
EAU CLAIRE     CLOUDY    54  39  57 W10       29.75F
MENOMONIE      CLOUDY    55  41  58 W10       29.75F
NEW RICHMOND   CLOUDY    56  41  58 W10       29.77R
OSCEOLA        CLOUDY    57  42  57 W9        29.79S
$$

WIZ003>005-009-010-017-018-231800-
NORTH CENTRAL WISCONSIN

CITY           SKY/WX    TMP DP  RH WIND       PRES   REMARKS
MANITOWISH WTR MOSUNNY   52  41  65 S10       29.72F
ARBOR VITAE    MOSUNNY   53  41  62 S12G17    29.73F
WOODRUFF       MOSUNNY   53  41  62 S12G17    29.73F
RHINELANDER    PTSUNNY   55  38  52 SW10      29.75F
EAGLE RIVER    NOT AVBL
LAND O LAKES   CLOUDY    55  37  50 S8        29.75F
PHILLIPS       MOSUNNY   52  40  64 SW9       29.74S
TOMAHAWK       CLOUDY    54  41  62 S3        29.74F
MEDFORD        PTSUNNY   50  40  67 SW8       29.74F
MERRILL        CLOUDY    52  41  66 S6        29.77F
$$

WIZ029-030-035-036-043>047-231800-
CENTRAL WISCONSIN

CITY           SKY/WX    TMP DP  RH WIND       PRES   REMARKS
WAUSAU         MOSUNNY   51  42  71 SE9       29.75F
MOSINEE        PTSUNNY   48  45  87 SE7       29.77F
MARSHFIELD     CLOUDY    53  40  61 SW12      29.75F
STEVENS POINT  PTSUNNY   50  39  66 S8        29.78F
WAUPACA        CLOUDY    49  48  97 CALM      29.81F
WAUTOMA        CLOUDY   N/A N/A N/A CALM      29.80
WISC RAPIDS    CLOUDY    50  45  83 S7        29.78F
CAMP DOUGLAS   CLOUDY    54  45  71 S7        29.75F
$$

WIZ011>013-019>022-031-037>040-048>050-231800-
NORTHEAST WISCONSIN

CITY           SKY/WX    TMP DP  RH WIND       PRES   REMARKS
ANTIGO         CLOUDY    48  38  69 S10       29.78F
SHAWANO        CLOUDY    47  46  95 CALM      29.82F
OCONTO         CLOUDY    47  46  95 CALM      29.82F
STURGEON BAY   CLOUDY    52  44  74 VRB3      29.82F
GREEN BAY      CLOUDY    50  48  93 W3        29.82F
MANITOWOC      CLOUDY    51  43  74 SE3       29.82F
APPLETON       PTSUNNY   52  48  87 CALM      29.82S
CLINTONVILLE   CLOUDY    46  46 100 CALM      29.80F
OSHKOSH        CLOUDY    53  44  71 CALM      29.81F
$$

WIZ032>034-041-042-053>061-231800-
SOUTHWEST WISCONSIN

CITY           SKY/WX    TMP DP  RH WIND       PRES   REMARKS
LA CROSSE      CLOUDY    56  42  59 W9        29.76F
SPARTA         MOSUNNY   54  42  62 W9        29.76F
VIROQUA        CLOUDY    53  42  66 W10       29.77F
BOSCOBEL       CLOUDY    50  47  89 CALM      29.79F
PRAIRIE DU CHI PTSUNNY   54  45  71 CALM      29.79S
PLATTEVILLE    CLOUDY    54  49  83 S10       29.82R
$$

WIZ056-057-062-063-064-067-068-231800-
SOUTH CENTRAL WISCONSIN

CITY           SKY/WX    TMP DP  RH WIND       PRES   REMARKS
REEDSBURG      CLOUDY    51  47  87 CALM      29.78F
BARABOO/DELLS  CLOUDY    51  43  73 S6        29.79F
LONE ROCK      CLOUDY    51  48  89 SE7       29.79F
MINERAL POINT  CLOUDY    54  48  82 S7        29.80F
MADISON        CLOUDY    53  46  77 S5        29.81F
MIDDLETON      CLOUDY    56  45  68 SE5       29.82F
WATERTOWN      CLOUDY    51  46  84 CALM      29.83F
MONROE         CLOUDY    54  41  62 S5        29.82S
JANESVILLE     CLOUDY    50  50 100 CALM      29.83F
$$

WIZ051-052-058>065-066-070>072-231800-
SOUTHEAST WISCONSIN

CITY           SKY/WX    TMP DP  RH WIND       PRES   REMARKS
MILWAUKEE      CLOUDY    54  50  86 N3        29.83S
WAUKESHA       SUNNY     48  45  87 CALM      29.84F
MILWAUKEE/TIMM PTSUNNY   52  45  76 CALM      29.83F
RACINE         CLOUDY    52  51  97 NW6       29.82F
BURLINGTON     CLOUDY    50  49  98 CALM      29.82F
KENOSHA        CLOUDY    52  49  89 NW7       29.81F
FOND DU LAC    CLOUDY    52  44  74 SW3       29.82F
SHEBOYGAN      LGT RAIN  53  48  83 CALM      29.82F
WEST BEND      CLOUDY    50  45  81 CALM      29.83S
JUNEAU         CLOUDY    48  45  90 CALM      29.83F
$$

LSZ147-162-231800-
LAKE SUPERIOR

STATION/POSITION TIME  TEMP    WIND        PRES    WAVE
                       AIR SEA DIR/SP/G            HT/PER
                 (UTC) (F)     (DEG/KT/KT) (MB)    (FT/S)
W MID LAKE BUOY  1650   53 51              1005.5F   3/ 5
DEVILS ISLAND    1700   56     240/ 10/ 12 1005.4F
SAXON HARBOR     1630   59     200/  7/ 15 1005.4S
$$

LMZ867-665-643>646-231800-
LAKE MICHIGAN

STATION/POSITION TIME  TEMP    WIND        PRES    WAVE
                       AIR SEA DIR/SP/G            HT/PER
                 (UTC) (F)     (DEG/KT/KT) (MB)    (FT/S)
S GREEN BAY BUOY 1700   51 58  280/  4/  6 1009.9
N MID LAKE BUOY  1650   53 57  100/  2/  4 1010.1F   0
NORTHPORT PIER   1640   51     150/  3/  5 1009.5F
KEWAUNEE LAKESHO 1648   50      30/  2/  3 1009.0F
SHEBOYGAN LAKESH 1700   49     340/  5/  5 1009.5F
PORT WASHINGTON  1640   54     330/  2/  4 1010.5F
MILWAUKEE LAKESH 1650   52     310/  3/  4   N/A
S MID LAKE BUOY  1650   54 59   20/ 14/ 16 1008.4F   3/ 4
KENOSHA   LAKESH 1700   52     310/  8/ 10 1009.5
$$

TC  - TEMPERATURE IN CELSIUS
VSB - VISIBILITY IN STATUTE MILES
WCI - WIND CHILL INDEX
HX  - HEAT INDEX





USA.gov is the U.S. government's official web portal to all federal, state and local government web resources and services.